Погода в Новопавловке

Россия / Оренбургская область     51°08′26″N   55°35′57″E
темп.,
°C
ветер,
м/с
пор.,
м/с
влажн.,
%
обл.,
%
осадки,
мм/ч
давл.,
гПа
погр.,
м
25 февраля, чт
чт2523:00−24ссз8159295 0.0 1026406
02:00−25ссз6129439 0.0 1029248
05:00−27сз5109520 0.0 1030156
08:00−29сз46970 0.0 103380
11:00−26сз36940 0.0 1035162
14:00−22зсз33890 0.0 1035226
17:00−22зюз34940 0.0 1035115
20:00−25юз349876 0.0 103543
26 февраля, пт
пт2623:00−25ю479588 0.0 1034142
02:00−23ю5893100 0.0 1032231
05:00−21ю5998100 0.3 1030311
08:00−20ююв61197100 0.3 1027373
11:00−18ююв71195100 0.6 1026450
14:00−15ююв71094100 0.4 1024564
17:00−13ююв6993100 0.9 1022605
20:00−13ююв61195100 0.4 1021393
27 февраля, сб
сб2723:00−12ююв6129499 0.6 1018363
02:00−10ююв61295100 0.3 1015376
05:00−8ю81395100 0.9 1012431
08:00−6ю101695100 1.6 1007509
11:00−3ююз101696100 6.1 1005607
14:00+1юз613100100 1.5 1003479
17:00+1зюз81199100 1.7 1003602
20:000зюз71298100 0.5 1002690
28 февраля, вс
вс2823:00−1зюз81396100 1.1 1002756
02:00−1юз91495100 0.4 1001765
05:00−2юз81496100 0.8 1001750
08:00−2зюз81496100 0.7 1002707
11:00−7з7994100 1.1 1003555
14:00−8з6991100 0.1 1006521
17:00−9з5992100 0.2 1008534
20:00−13з4697100 0.1 1010120
1 марта, пн
пн123:00−16зсз349794 0.1 101345
02:00−18зсз339850 0.0 101424
05:00−19з239946 0.0 101620
08:00−20зсз221001 0.0 101820
11:00−17з239518 0.0 1019127
14:00−15з348950 0.0 1021310
17:00−15зсз349372 0.0 1021189
20:00−19зсз349984 0.0 102429